Time,TemperatureF,DewpointF,PressureIn,WindDirection,WindDirectionDegrees,WindSpeedMPH,WindSpeedGustMPH,Humidity,HourlyPrecipIn,Conditions,Clouds,dailyrainin,SoftwareType,DateUTC
2013-01-01 00:03:00,37.0,22.0,30.12,SSE,159,0.0,0.0,55,0.00,,,0.00,,2013-01-01 05:03:00,
2013-01-01 00:12:00,37.0,22.0,30.12,SSE,159,0.0,0.0,55,0.00,,,0.00,,2013-01-01 05:12:00,
2013-01-01 00:22:00,38.0,22.0,30.12,SSE,158,0.0,5.0,53,0.00,,,0.00,,2013-01-01 05:22:00,
2013-01-01 00:33:00,38.0,22.0,30.09,SSE,160,0.0,0.0,51,0.00,,,0.00,,2013-01-01 05:33:00,
2013-01-01 00:42:00,38.0,22.0,30.09,SSE,160,0.0,0.0,51,0.00,,,0.00,,2013-01-01 05:42:00,
2013-01-01 00:53:00,38.0,22.0,30.09,SSE,160,0.0,0.0,51,0.00,,,0.00,,2013-01-01 05:53:00,
2013-01-01 01:02:00,38.0,22.0,30.09,SSE,159,0.0,0.0,51,0.00,,,0.00,,2013-01-01 06:02:00,
2013-01-01 01:12:00,38.0,22.0,30.09,SSE,159,0.0,0.0,51,0.00,,,0.00,,2013-01-01 06:12:00,
2013-01-01 01:22:00,38.0,20.0,30.09,SSE,161,0.0,0.0,48,0.00,,,0.00,,2013-01-01 06:22:00,
2013-01-01 01:32:00,39.0,20.0,30.09,SSE,160,0.0,4.0,47,0.00,,,0.00,,2013-01-01 06:32:00,
2013-01-01 01:42:00,39.0,20.0,30.09,SSE,160,0.0,4.0,47,0.00,,,0.00,,2013-01-01 06:42:00,
2013-01-01 01:52:00,39.0,19.0,30.06,SSE,159,0.0,0.0,45,0.00,,,0.00,,2013-01-01 06:52:00,
2013-01-01 02:02:00,39.0,19.0,30.06,SSE,161,0.0,4.0,45,0.00,,,0.00,,2013-01-01 07:02:00,
2013-01-01 02:12:00,39.0,20.0,30.06,SSE,160,0.0,0.0,46,0.00,,,0.00,,2013-01-01 07:12:00,
2013-01-01 02:22:00,39.0,20.0,30.06,SSE,160,0.0,0.0,46,0.00,,,0.00,,2013-01-01 07:22:00,
2013-01-01 02:32:00,39.0,20.0,30.06,SSE,161,0.0,4.0,46,0.00,,,0.00,,2013-01-01 07:32:00,
2013-01-01 02:42:00,39.0,20.0,30.06,SSE,161,0.0,4.0,46,0.00,,,0.00,,2013-01-01 07:42:00,
2013-01-01 02:53:00,39.0,20.0,30.06,SSE,159,0.0,5.0,47,0.00,,,0.00,,2013-01-01 07:53:00,
2013-01-01 03:02:00,39.0,21.0,30.06,SSE,160,0.0,4.0,48,0.00,,,0.00,,2013-01-01 08:02:00,
2013-01-01 03:12:00,39.0,21.0,30.06,SSE,160,0.0,4.0,48,0.00,,,0.00,,2013-01-01 08:12:00,
2013-01-01 03:22:00,38.0,21.0,30.06,SSE,158,0.0,0.0,49,0.00,,,0.00,,2013-01-01 08:22:00,
2013-01-01 03:32:00,38.0,22.0,30.06,SSE,160,0.0,0.0,52,0.00,,,0.00,,2013-01-01 08:32:00,
2013-01-01 03:42:00,37.0,22.0,30.06,SSE,160,0.0,0.0,55,0.00,,,0.00,,2013-01-01 08:42:00,
2013-01-01 03:53:00,37.0,22.0,30.06,SSE,160,0.0,0.0,55,0.00,,,0.00,,2013-01-01 08:53:00,
2013-01-01 04:02:00,37.0,23.0,30.06,SSE,160,0.0,0.0,57,0.00,,,0.00,,2013-01-01 09:02:00,
2013-01-01 04:12:00,37.0,23.0,30.06,SSE,160,0.0,0.0,57,0.00,,,0.00,,2013-01-01 09:12:00,
2013-01-01 04:22:00,37.0,24.0,30.09,SSE,159,0.0,0.0,58,0.00,,,0.00,,2013-01-01 09:22:00,
2013-01-01 04:32:00,37.0,24.0,30.09,SSE,160,0.0,0.0,59,0.00,,,0.00,,2013-01-01 09:32:00,
2013-01-01 04:42:00,37.0,24.0,30.09,SSE,160,0.0,0.0,59,0.00,,,0.00,,2013-01-01 09:42:00,
2013-01-01 04:52:00,37.0,28.0,30.09,SSE,160,0.0,0.0,71,0.00,,,0.00,,2013-01-01 09:52:00,
2013-01-01 05:02:00,37.0,30.0,30.09,SSE,160,0.0,0.0,75,0.00,,,0.00,,2013-01-01 10:02:00,
2013-01-01 05:12:00,36.0,29.0,30.06,West,279,0.0,6.0,75,0.04,,,0.04,,2013-01-01 10:12:00,
2013-01-01 05:22:00,36.0,29.0,30.06,West,279,0.0,6.0,75,0.04,,,0.04,,2013-01-01 10:22:00,
2013-01-01 05:33:00,36.0,29.0,30.06,NW,326,0.0,5.0,75,0.04,,,0.04,,2013-01-01 10:33:00,
2013-01-01 05:42:00,36.0,29.0,30.06,NW,326,0.0,5.0,75,0.04,,,0.04,,2013-01-01 10:42:00,
2013-01-01 05:53:00,36.0,29.0,30.06,WSW,245,0.0,0.0,75,0.08,,,0.08,,2013-01-01 10:53:00,
2013-01-01 06:02:00,36.0,29.0,30.09,WSW,244,0.0,0.0,75,0.08,,,0.08,,2013-01-01 11:02:00,
2013-01-01 06:12:00,36.0,29.0,30.09,WSW,244,0.0,0.0,75,0.08,,,0.08,,2013-01-01 11:12:00,
2013-01-01 06:23:00,36.0,29.0,30.09,WSW,245,0.0,0.0,74,0.08,,,0.12,,2013-01-01 11:23:00,
2013-01-01 06:33:00,36.0,29.0,30.09,WSW,244,0.0,0.0,74,0.12,,,0.16,,2013-01-01 11:33:00,
2013-01-01 06:43:00,36.0,29.0,30.09,WSW,244,0.0,0.0,74,0.12,,,0.16,,2013-01-01 11:43:00,
2013-01-01 06:53:00,36.0,29.0,30.09,WSW,245,0.0,0.0,77,0.12,,,0.20,,2013-01-01 11:53:00,
2013-01-01 07:03:00,36.0,30.0,30.09,WSW,245,0.0,0.0,78,0.12,,,0.20,,2013-01-01 12:03:00,
2013-01-01 07:12:00,36.0,30.0,30.09,WSW,245,0.0,0.0,78,0.12,,,0.20,,2013-01-01 12:12:00,
2013-01-01 07:22:00,36.0,31.0,30.09,WSW,244,0.0,0.0,82,0.12,,,0.24,,2013-01-01 12:22:00,
2013-01-01 07:33:00,36.0,31.0,30.09,WSW,244,0.0,0.0,83,0.12,,,0.28,,2013-01-01 12:33:00,
2013-01-01 07:43:00,36.0,31.0,30.09,WSW,244,0.0,0.0,83,0.12,,,0.28,,2013-01-01 12:43:00,
2013-01-01 07:53:00,36.0,31.0,30.09,WSW,244,0.0,0.0,83,0.08,,,0.28,,2013-01-01 12:53:00,
2013-01-01 08:03:00,36.0,31.0,30.09,WSW,243,0.0,0.0,83,0.16,,,0.36,,2013-01-01 13:03:00,
2013-01-01 08:12:00,36.0,31.0,30.09,WSW,243,0.0,0.0,83,0.16,,,0.36,,2013-01-01 13:12:00,
2013-01-01 08:22:00,36.0,32.0,30.09,WSW,244,0.0,0.0,84,0.12,,,0.36,,2013-01-01 13:22:00,
2013-01-01 08:33:00,37.0,33.0,30.09,WSW,243,0.0,3.0,84,0.08,,,0.36,,2013-01-01 13:33:00,
2013-01-01 08:43:00,37.0,33.0,30.09,WSW,243,0.0,3.0,84,0.08,,,0.36,,2013-01-01 13:43:00,
2013-01-01 08:53:00,37.0,32.0,30.09,WSW,246,0.0,0.0,83,0.12,,,0.40,,2013-01-01 13:53:00,
2013-01-01 09:02:00,37.0,32.0,30.09,WSW,243,0.0,0.0,83,0.04,,,0.40,,2013-01-01 14:02:00,
2013-01-01 09:12:00,37.0,32.0,30.09,WSW,243,0.0,0.0,83,0.04,,,0.40,,2013-01-01 14:12:00,
2013-01-01 09:22:00,37.0,32.0,30.06,WSW,244,0.0,4.0,83,0.08,,,0.44,,2013-01-01 14:22:00,
2013-01-01 09:32:00,37.0,32.0,30.06,WSW,244,0.0,5.0,83,0.08,,,0.44,,2013-01-01 14:32:00,
2013-01-01 09:42:00,37.0,32.0,30.06,WSW,244,0.0,5.0,83,0.08,,,0.44,,2013-01-01 14:42:00,
2013-01-01 09:53:00,38.0,33.0,30.03,SSW,208,0.0,4.0,82,0.08,,,0.48,,2013-01-01 14:53:00,
2013-01-01 10:03:00,39.0,34.0,30.06,ESE,112,6.0,13.0,82,0.08,,,0.48,,2013-01-01 15:03:00,
2013-01-01 10:12:00,39.0,34.0,30.06,ESE,112,6.0,13.0,82,0.08,,,0.48,,2013-01-01 15:12:00,
2013-01-01 10:22:00,37.0,32.0,30.09,SE,137,5.0,11.0,81,0.04,,,0.48,,2013-01-01 15:22:00,
2013-01-01 10:33:00,38.0,33.0,30.09,SSE,160,3.0,5.0,81,0.04,,,0.48,,2013-01-01 15:33:00,
2013-01-01 10:42:00,38.0,33.0,30.09,SSE,160,3.0,5.0,81,0.04,,,0.48,,2013-01-01 15:42:00,
2013-01-01 10:53:00,38.0,33.0,30.06,WSW,241,0.0,5.0,81,0.04,,,0.52,,2013-01-01 15:53:00,
2013-01-01 11:02:00,38.0,33.0,30.06,WSW,240,0.0,4.0,81,0.08,,,0.56,,2013-01-01 16:02:00,
2013-01-01 11:12:00,38.0,33.0,30.06,WSW,240,0.0,4.0,81,0.08,,,0.56,,2013-01-01 16:12:00,
2013-01-01 11:22:00,39.0,34.0,30.03,SW,236,0.0,9.0,81,0.08,,,0.56,,2013-01-01 16:22:00,
2013-01-01 11:33:00,40.0,35.0,30.00,SSE,165,5.0,7.0,81,0.08,,,0.56,,2013-01-01 16:33:00,
2013-01-01 11:42:00,40.0,35.0,30.00,SSE,165,5.0,7.0,81,0.08,,,0.56,,2013-01-01 16:42:00,
2013-01-01 11:53:00,40.0,35.0,30.03,SE,129,5.0,14.0,81,0.08,,,0.60,,2013-01-01 16:53:00,
2013-01-01 12:02:00,40.0,35.0,30.03,ESE,105,5.0,15.0,81,0.04,,,0.60,,2013-01-01 17:02:00,
2013-01-01 12:12:00,40.0,35.0,30.03,ESE,105,5.0,15.0,81,0.04,,,0.60,,2013-01-01 17:12:00,
2013-01-01 12:22:00,41.0,35.0,30.03,SSE,167,0.0,3.0,80,0.04,,,0.60,,2013-01-01 17:22:00,
2013-01-01 12:33:00,42.0,36.0,30.03,SSE,167,0.0,0.0,80,0.04,,,0.60,,2013-01-01 17:33:00,
2013-01-01 12:43:00,42.0,36.0,30.03,SSE,167,0.0,0.0,80,0.04,,,0.60,,2013-01-01 17:43:00,
2013-01-01 12:53:00,43.0,37.0,30.03,SSE,167,0.0,0.0,79,0.00,,,0.60,,2013-01-01 17:53:00,
2013-01-01 13:03:00,42.0,36.0,30.00,SSE,168,0.0,0.0,79,0.00,,,0.60,,2013-01-01 18:03:00,
2013-01-01 13:13:00,42.0,36.0,30.00,SSE,168,0.0,0.0,79,0.00,,,0.60,,2013-01-01 18:13:00,
2013-01-01 13:23:00,43.0,37.0,30.00,WSW,242,0.0,4.0,79,0.00,,,0.60,,2013-01-01 18:23:00,
2013-01-01 13:33:00,44.0,38.0,30.00,NW,320,0.0,6.0,79,0.00,,,0.60,,2013-01-01 18:33:00,
2013-01-01 13:43:00,44.0,38.0,30.00,NW,320,0.0,6.0,79,0.00,,,0.60,,2013-01-01 18:43:00,
2013-01-01 13:53:00,44.0,38.0,30.00,NW,320,0.0,6.0,79,0.00,,,0.60,,2013-01-01 18:53:00,
2013-01-01 14:02:00,45.0,39.0,29.97,NW,320,0.0,4.0,78,0.00,,,0.60,,2013-01-01 19:02:00,
2013-01-01 14:12:00,45.0,39.0,29.97,NW,320,0.0,4.0,78,0.00,,,0.60,,2013-01-01 19:12:00,
2013-01-01 14:22:00,46.0,40.0,29.97,NW,321,0.0,0.0,78,0.00,,,0.60,,2013-01-01 19:22:00,
2013-01-01 14:33:00,45.0,39.0,29.97,NW,320,3.0,4.0,78,0.04,,,0.64,,2013-01-01 19:33:00,
2013-01-01 14:42:00,45.0,39.0,29.97,NW,320,3.0,4.0,78,0.04,,,0.64,,2013-01-01 19:42:00,
2013-01-01 14:53:00,46.0,40.0,29.97,NW,320,0.0,6.0,78,0.04,,,0.64,,2013-01-01 19:53:00,
2013-01-01 15:02:00,45.0,38.0,29.97,ENE,67,0.0,5.0,77,0.04,,,0.64,,2013-01-01 20:02:00,
2013-01-01 15:12:00,45.0,38.0,29.97,ENE,67,0.0,5.0,77,0.04,,,0.64,,2013-01-01 20:12:00,
2013-01-01 15:23:00,45.0,38.0,30.00,ENE,72,0.0,4.0,77,0.04,,,0.64,,2013-01-01 20:23:00,
2013-01-01 15:32:00,44.0,38.0,30.00,ENE,61,0.0,5.0,78,0.04,,,0.68,,2013-01-01 20:32:00,
2013-01-01 15:42:00,44.0,38.0,30.00,ENE,61,0.0,5.0,78,0.04,,,0.68,,2013-01-01 20:42:00,
2013-01-01 15:53:00,44.0,38.0,30.00,ENE,59,0.0,3.0,78,0.08,,,0.72,,2013-01-01 20:53:00,
2013-01-01 16:03:00,45.0,39.0,30.00,ENE,61,0.0,0.0,78,0.08,,,0.72,,2013-01-01 21:03:00,
2013-01-01 16:13:00,44.0,38.0,30.00,ENE,62,0.0,0.0,78,0.08,,,0.72,,2013-01-01 21:13:00,
2013-01-01 16:22:00,44.0,38.0,30.00,ENE,62,0.0,0.0,78,0.08,,,0.72,,2013-01-01 21:22:00,
2013-01-01 16:33:00,44.0,38.0,30.00,ENE,62,0.0,0.0,78,0.08,,,0.76,,2013-01-01 21:33:00,
2013-01-01 16:42:00,44.0,38.0,30.00,ENE,62,0.0,0.0,78,0.08,,,0.76,,2013-01-01 21:42:00,
2013-01-01 16:53:00,44.0,38.0,30.00,ENE,61,0.0,0.0,78,0.08,,,0.80,,2013-01-01 21:53:00,
2013-01-01 17:03:00,45.0,39.0,29.97,ENE,61,0.0,0.0,78,0.08,,,0.80,,2013-01-01 22:03:00,
2013-01-01 17:12:00,45.0,39.0,29.97,ENE,61,0.0,0.0,78,0.08,,,0.80,,2013-01-01 22:12:00,
2013-01-01 17:22:00,45.0,39.0,29.97,ENE,64,0.0,0.0,79,0.08,,,0.80,,2013-01-01 22:22:00,
2013-01-01 17:33:00,45.0,39.0,29.97,ENE,62,0.0,0.0,79,0.04,,,0.80,,2013-01-01 22:33:00,
2013-01-01 17:42:00,45.0,39.0,29.97,ENE,62,0.0,0.0,79,0.04,,,0.80,,2013-01-01 22:42:00,
2013-01-01 17:53:00,44.0,38.0,29.97,ENE,62,0.0,0.0,79,0.00,,,0.80,,2013-01-01 22:53:00,
2013-01-01 18:03:00,44.0,38.0,29.97,ENE,62,0.0,0.0,79,0.00,,,0.80,,2013-01-01 23:03:00,
2013-01-01 18:12:00,44.0,38.0,29.97,ENE,62,0.0,0.0,79,0.00,,,0.80,,2013-01-01 23:12:00,
2013-01-01 18:22:00,44.0,38.0,29.97,ENE,63,0.0,0.0,79,0.04,,,0.84,,2013-01-01 23:22:00,
2013-01-01 18:32:00,44.0,38.0,29.97,ENE,61,0.0,0.0,79,0.04,,,0.84,,2013-01-01 23:32:00,
2013-01-01 18:42:00,44.0,38.0,29.97,ENE,61,0.0,0.0,79,0.04,,,0.84,,2013-01-01 23:42:00,
2013-01-01 18:53:00,44.0,38.0,30.00,ENE,61,0.0,0.0,78,0.04,,,0.84,,2013-01-01 23:53:00,
2013-01-01 19:03:00,44.0,38.0,30.00,ENE,60,0.0,0.0,78,0.04,,,0.84,,2013-01-02 00:03:00,
2013-01-01 19:12:00,44.0,38.0,30.00,ENE,60,0.0,0.0,78,0.04,,,0.84,,2013-01-02 00:12:00,
2013-01-01 19:22:00,44.0,38.0,30.00,ENE,61,0.0,0.0,78,0.04,,,0.88,,2013-01-02 00:22:00,
2013-01-01 19:32:00,44.0,38.0,30.00,ENE,65,0.0,0.0,78,0.04,,,0.88,,2013-01-02 00:32:00,
2013-01-01 19:42:00,44.0,38.0,30.00,ENE,65,0.0,0.0,78,0.04,,,0.88,,2013-01-02 00:42:00,
2013-01-01 19:53:00,44.0,38.0,30.00,ENE,63,0.0,0.0,78,0.04,,,0.88,,2013-01-02 00:53:00,
2013-01-01 20:02:00,44.0,38.0,30.00,ENE,60,0.0,0.0,78,0.08,,,0.92,,2013-01-02 01:02:00,
2013-01-01 20:12:00,44.0,38.0,30.00,ENE,60,0.0,0.0,78,0.08,,,0.92,,2013-01-02 01:12:00,
2013-01-01 20:22:00,44.0,38.0,30.00,ENE,60,0.0,0.0,78,0.04,,,0.92,,2013-01-02 01:22:00,
2013-01-01 20:32:00,44.0,38.0,30.00,ENE,60,0.0,0.0,78,0.04,,,0.92,,2013-01-02 01:32:00,
2013-01-01 20:42:00,44.0,38.0,30.00,ENE,60,0.0,0.0,78,0.04,,,0.92,,2013-01-02 01:42:00,
2013-01-01 20:52:00,44.0,38.0,30.00,ENE,61,0.0,0.0,78,0.08,,,0.96,,2013-01-02 01:52:00,
2013-01-01 21:02:00,44.0,38.0,30.00,ENE,61,0.0,0.0,78,0.08,,,0.96,,2013-01-02 02:02:00,
2013-01-01 21:12:00,44.0,38.0,30.00,ENE,61,0.0,0.0,78,0.08,,,0.96,,2013-01-02 02:12:00,
2013-01-01 21:22:00,44.0,38.0,30.00,ENE,61,0.0,0.0,78,0.04,,,0.96,,2013-01-02 02:22:00,
2013-01-01 21:32:00,44.0,38.0,30.00,ENE,62,0.0,0.0,78,0.04,,,0.96,,2013-01-02 02:32:00,
2013-01-01 21:43:00,44.0,38.0,30.00,ENE,62,0.0,0.0,78,0.04,,,0.96,,2013-01-02 02:43:00,
2013-01-01 21:53:00,44.0,38.0,30.00,ENE,62,0.0,0.0,78,0.04,,,1.00,,2013-01-02 02:53:00,
2013-01-01 22:02:00,44.0,38.0,30.00,ENE,63,0.0,0.0,78,0.04,,,1.00,,2013-01-02 03:02:00,
2013-01-01 22:12:00,44.0,38.0,30.00,ENE,63,0.0,0.0,78,0.04,,,1.00,,2013-01-02 03:12:00,
2013-01-01 22:22:00,44.0,38.0,30.00,ENE,60,0.0,0.0,78,0.04,,,1.00,,2013-01-02 03:22:00,
2013-01-01 22:32:00,44.0,38.0,30.00,ENE,60,0.0,0.0,78,0.04,,,1.00,,2013-01-02 03:32:00,
2013-01-01 22:42:00,44.0,38.0,30.00,ENE,60,0.0,0.0,78,0.04,,,1.00,,2013-01-02 03:42:00,
2013-01-01 22:53:00,44.0,38.0,30.00,ENE,57,0.0,0.0,79,0.04,,,1.04,,2013-01-02 03:53:00,
2013-01-01 23:02:00,44.0,38.0,29.97,ENE,61,0.0,0.0,79,0.04,,,1.04,,2013-01-02 04:02:00,
2013-01-01 23:12:00,44.0,38.0,29.97,ENE,61,0.0,0.0,79,0.04,,,1.04,,2013-01-02 04:12:00,
2013-01-01 23:22:00,44.0,38.0,29.97,ENE,65,0.0,0.0,79,0.04,,,1.04,,2013-01-02 04:22:00,
2013-01-01 23:32:00,44.0,38.0,30.00,ENE,60,0.0,0.0,79,0.04,,,1.04,,2013-01-02 04:32:00,
2013-01-01 23:42:00,44.0,38.0,30.00,ENE,60,0.0,0.0,79,0.04,,,1.04,,2013-01-02 04:42:00,
2013-01-01 23:53:00,44.0,38.0,30.00,East,87,5.0,6.0,78,0.00,,,1.04,,2013-01-02 04:53:00,